Jackson, TN

6:53 PM CST on December 07, 2016 (GMT -0600)
McKellar-Sipes Regional

Weather History for KMKL - November, 2013

Change the Weather History Date:

Tuesday, November 12, 2013

  Actual Average Record
Temperature  
Mean Temperature 41 °F 52 °F  
Max Temperature 56 °F 63 °F 82 °F (1989)
Min Temperature 26 °F 40 °F 21 °F (1950)
Degree Days  
Heating Degree Days 24 14  
Month to date heating degree days 176 142  
Since 1 July heating degree days 381 356  
Cooling Degree Days 0 0  
Month to date cooling degree days 0 2  
Year to date cooling degree days 1592 1693  
Moisture  
Dew Point 28 °F    
Average Humidity 59    
Maximum Humidity 85    
Minimum Humidity 33    
Precipitation  
Precipitation 0.02 in 0.15 in 0.87 in (1951)
Month to date precipitation 0.22 1.70  
Year to date precipitation 51.96 44.72  
Snow  
Snow 0.00 in 0.00 in T in (1968)
Month to date snowfall 0.0 0.0  
Since 1 July snowfall 0.0 0.0  
Since 1 September snowfall 0.0 0.0  
Snow Depth 0.00 in    
Sea Level Pressure  
Sea Level Pressure 30.53 in    
Wind  
Wind Speed 14 mph (North)    
Max Wind Speed 26 mph    
Max Gust Speed 32 mph    
Visibility 10 miles    
Events Rain , Snow    
T = Trace of Precipitation, MM = Missing Value Source: NWS Daily Summary

Daily Weather History Graph

Daily Weather History Graph

Search for Another Location

Airport or City:

Trip Planner

Search our weather history database for the weather conditions in past years. The results will help you decide how hot, cold, wet, or windy it might be!

Date:

Astronomy

Nov. 12, 2013 Rise Set
Actual Time 6:28 AM CST 4:50 PM CST
Civil Twilight 6:01 AM CST 5:17 PM CST
Nautical Twilight 5:30 AM CST 5:48 PM CST
Astronomical Twilight 5:00 AM CST 6:18 PM CST
Moon 1:56 PM CST (11/12) 1:28 AM CST (11/12)
Length of Visible Light 11h 16m
Length of Day
10h 22m
Waxing Gibbous, 76% of the Moon is Illuminated
Nov 12
Waxing Gibbous
Nov 17
Full
Nov 25
Last Quarter
Dec 2
New
Dec 9
First Quarter

Hourly Weather History & Observations

Time (CST) Temp. Windchill Dew Point Humidity Pressure Visibility Wind Dir Wind Speed Gust Speed Precip Events Conditions
12:53 AM 55.9 °F - 44.1 °F 64% 30.23 in 10.0 mi NNW 12.7 mph - N/A   Overcast
1:53 AM 52.0 °F - 46.0 °F 80% 30.26 in 10.0 mi North 17.3 mph - N/A   Overcast
2:05 AM 51.8 °F - 44.6 °F 76% 30.27 in 10.0 mi North 16.1 mph - N/A   Overcast
2:53 AM 48.0 °F - 41.0 °F 77% 30.30 in 10.0 mi North 17.3 mph 26.5 mph N/A   Overcast
3:53 AM 45.0 °F 36.6 °F 37.9 °F 76% 30.35 in 10.0 mi NNE 21.9 mph 27.6 mph 0.00 in   Overcast
4:53 AM 42.1 °F 33.6 °F 36.0 °F 79% 30.40 in 10.0 mi North 18.4 mph 28.8 mph N/A   Overcast
5:53 AM 39.9 °F 31.8 °F 36.0 °F 86% 30.44 in 10.0 mi North 15.0 mph - 0.00 in Rain Light Rain
6:03 AM 39.2 °F 29.8 °F 35.6 °F 87% 30.45 in 9.0 mi North 18.4 mph 26.5 mph 0.00 in Rain Light Rain
6:53 AM 37.9 °F 27.6 °F 34.0 °F 86% 30.49 in 10.0 mi North 20.7 mph 27.6 mph 0.01 in   Overcast
7:39 AM 37.4 °F 28.5 °F 33.8 °F 87% 30.52 in 10.0 mi North 15.0 mph - 0.00 in Rain Light Rain
7:53 AM 37.0 °F 28.1 °F 34.0 °F 89% 30.53 in 10.0 mi North 15.0 mph - 0.01 in   Overcast
8:33 AM 37.4 °F 26.9 °F 32.0 °F 81% 30.56 in 10.0 mi North 20.7 mph 28.8 mph N/A   Overcast
8:53 AM 37.0 °F 27.4 °F 32.0 °F 82% 30.57 in 10.0 mi North 17.3 mph - N/A   Overcast
9:53 AM 36.0 °F 25.6 °F 30.9 °F 82% 30.60 in 10.0 mi North 18.4 mph - 0.00 in   Overcast
10:53 AM 37.9 °F 28.9 °F 28.0 °F 68% 30.60 in 10.0 mi NNE 16.1 mph 25.3 mph N/A   Overcast
11:12 AM 39.2 °F 29.8 °F 26.6 °F 61% 30.59 in 10.0 mi NNE 18.4 mph 24.2 mph N/A   Mostly Cloudy
11:53 AM 41.0 °F 32.8 °F 24.1 °F 51% 30.59 in 10.0 mi NNE 16.1 mph 25.3 mph N/A   Scattered Clouds
12:53 PM 44.1 °F 36.5 °F 19.9 °F 38% 30.57 in 10.0 mi NNE 17.3 mph 26.5 mph N/A   Clear
1:53 PM 44.1 °F 36.8 °F 18.0 °F 35% 30.57 in 10.0 mi NNE 16.1 mph 24.2 mph N/A   Clear
2:53 PM 44.1 °F 37.4 °F 18.0 °F 35% 30.58 in 10.0 mi NNE 13.8 mph 20.7 mph N/A   Clear
3:53 PM 42.1 °F 35.2 °F 17.1 °F 37% 30.59 in 10.0 mi NNE 12.7 mph 24.2 mph N/A   Clear
4:53 PM 39.0 °F 31.4 °F 16.0 °F 39% 30.61 in 10.0 mi NNE 12.7 mph - N/A   Clear
5:53 PM 35.1 °F 28.6 °F 19.0 °F 52% 30.63 in 10.0 mi North 8.1 mph - 0.00 in   Clear
6:53 PM 35.1 °F 27.9 °F 18.0 °F 50% 30.64 in 9.0 mi NNE 9.2 mph - 0.00 in Snow Light Snow
7:53 PM 32.0 °F 24.8 °F 19.0 °F 59% 30.65 in 9.0 mi NNE 8.1 mph - 0.00 in   Clear
8:53 PM 30.9 °F 23.5 °F 19.9 °F 64% 30.66 in 10.0 mi North 8.1 mph - 0.00 in   Clear
9:53 PM 30.9 °F 23.5 °F 19.9 °F 64% 30.67 in 10.0 mi NNE 8.1 mph - 0.00 in   Clear
10:53 PM 30.0 °F 23.2 °F 19.9 °F 66% 30.67 in 10.0 mi North 6.9 mph - N/A   Clear
11:53 PM 27.0 °F 20.5 °F 19.9 °F 75% 30.67 in 10.0 mi North 5.8 mph - 0.00 in   Clear